Location: Jesenik
(50.2330°N, 17.2000°E)
Time: 10:06:16
(UTC+02:00)

ISS - Pass Details

Date: 26 March 2019
Orbit: 408 x 410 km, 51.6° (Epoch: 21 April)

Event Time Altitude Azimuth Distance (km) Brightness Sun altitude
Rises 20:59:56 0° 275° (W) 2,336 0.9 -25.3°
Reaches altitude 10° 21:02:02 10° 278° (W) 1,474 -0.3 -25.5°
Enters shadow 21:03:36 25° 285° (WNW) 865 -1.6 -25.7°
